Location: Härggis
(46.9540°N, 8.4897°E)
Time: 21:22:43
(UTC+00:00)

SL-16 R/B - Pass Details

Date: 03 October 2022
Orbit: 985 x 1007 km, 99.6° (Epoch: 05 December)

Event Time Altitude Azimuth Distance (km) Brightness Sun altitude
Exits shadow 23:34:34 15° 31° (NNE) 2,408 4.9 -47.1°
Drops below altitude 10° 23:36:31 10° 13° (NNE) 2,778 5.4 -47.0°
Sets 23:39:53 0° 355° (N) 3,736 6.2 -47.0°
